Location: Recife
(8.0585°S, 34.8848°W)
Time: 09:06:30
(UTC-03:00)

Courier 1B Rocket - Pass Details

Date: 17 April 2026
Orbit: 920 x 1201 km, 28.3° (Epoch: 11 May)

Event Time Altitude Azimuth Distance (km) Brightness Sun altitude
Exits shadow 04:38:27 13° 277° (W) 2,403 6.4 -11.4°
Maximum altitude 04:43:50 48° 205° (SSW) 1,238 5.3 -10.1°
Drops below altitude 10° 04:50:15 10° 132° (SE) 2,774 8.0 -8.5°
Sets 04:53:08 0° 127° (SE) 3,771 8.8 -7.8°
